Simultaneous Nadir Overpasses (SNOs) Predictions

Prediction of SNOs between AQUA and NOAA-19 Satellite Orbit:

Table of predicted SNOs for the next 14.0 days since TLE Epoch: 2/19/2016
Index Date (AQUA) Time (AQUA) Lat,Lon (AQUA) SZA (AQUA ) Date (NOAA-19) Time (NOAA-19) Lat,Lon (NOAA-19) SZA (NOAA-19 ) Distance(km) Time Diff (sec)
1 02/20/2016 20:55:03 -80.72, 8.51 86.19 02/20/2016 20:54:02 -80.72, 8.70 86.18 3.25 61
2 02/20/2016 21:44:29 80.70, 176.47 93.75 02/20/2016 21:45:07 80.70, 176.47 93.73 0.42 38
3 02/23/2016 02:28:50 80.74, 104.94 93.02 02/23/2016 02:28:17 80.73, 104.97 93.03 0.61 33
4 02/23/2016 03:18:15 -80.70, -87.00 87.07 02/23/2016 03:19:10 -80.69, -86.84 87.11 2.93 55
5 02/25/2016 08:02:36 -80.74,-158.60 87.79 02/25/2016 08:02:21 -80.74,-158.74 87.77 2.53 15
6 02/27/2016 13:36:21 80.72, -61.74 91.33 02/27/2016 13:36:34 80.73, -61.85 91.34 2.19 13
7 02/29/2016 18:20:41 80.75,-133.21 90.56 02/29/2016 18:19:43 80.75,-133.15 90.58 1.12 58
8 02/29/2016 19:10:06 -80.71, 34.90 89.54 02/29/2016 19:10:37 -80.72, 34.77 89.53 2.62 31
9 03/02/2016 23:54:26 -80.75, -36.65 90.31 03/02/2016 23:53:46 -80.74, -36.51 90.31 2.66 40




NCC Satellite Simultaneous Nadir Overpasses (SNOs) Prediction Service
